Regional Weather Roundup
Issued by NWS Upton, NY

Current Version | Previous Version | Graphics & Text | Print | Product List | Glossary Off
Versions: 1 2 3 4 5 6 7 8 9 10 11 12 13 14 15 16 17 18 19 20 21 22 23 24 25 26 27

000
ASUS41 KOKX 241405
RWROKX

REGIONAL WEATHER ROUNDUP
NATIONAL WEATHER SERVICE NEW YORK NY
1000 AM EDT FRI OCT 24 2014

NOTE: "FAIR" INDICATES FEW OR NO CLOUDS BELOW 12,000 FEET WITH NO
SIGNIFICANT WEATHER AND/OR OBSTRUCTIONS TO VISIBILITY.

NYZ071-072-176-178-NJZ106-104-241500-
NEW YORK CITY METRO AREA


CITY           SKY/WX    TMP DP  RH WIND       PRES   REMARKS
CENTRAL PARK   CLOUDY    54  43  66 NW7       29.85S
LAGUARDIA APRT CLOUDY    54  43  66 NW14      29.82S
KENNEDY INTL   CLOUDY    57  44  62 NW16      29.82S
NEWARK/LIBERTY PTSUNNY   56  43  61 NW17G24   29.83S
BRNX BOT. GARD   N/A     54  43  66 W5        29.84R
TETERBORO      CLOUDY    54  42  64 N13G20    29.82R
$$

NYZ177-179-078>081-241500-
LONG ISLAND NEW YORK

CITY           SKY/WX    TMP DP  RH WIND       PRES   REMARKS
FARMINGDALE    CLOUDY    52  46  80 NW9       29.81R
ISLIP          LGT RAIN  51  47  86 NW15      29.77S FOG
SHIRLEY        CLOUDY    51  47  86 NW13      29.79R
WESTHAMPTON    LGT RAIN  51  48  89 NW10      29.78S
MONTAUK POINT    N/A     52  47  83 NW14G21   29.75S
$$

NYZ052-065-067-241500-
HUDSON VALLEY

CITY           SKY/WX    TMP DP  RH WIND       PRES   REMARKS
WHITE PLAINS   CLOUDY    51  45  79 NW15      29.80S
NEWBURGH       PTSUNNY   50  46  87 NW6       29.84R
MONTGOMERY     CLOUDY    54  42  64 NW12      29.82S
POUGHKEEPSIE   CLOUDY    51  45  79 N3        29.82S
ALBANY         DRIZZLE   46  44  93 NE6       29.87R FOG
$$

NJZ001-105-106-008-010-013-015-019>022-104-241500-
NEW JERSEY

CITY           SKY/WX    TMP DP  RH WIND       PRES   REMARKS
NEWARK/LIBERTY PTSUNNY   56  43  61 NW17G24   29.83S
TETERBORO      CLOUDY    54  42  64 N13G20    29.82R
CALDWELL       CLOUDY    53  41  63 VRB6      29.84S
MORRISTOWN     PTSUNNY   54  43  66 N9G16     29.84F
SOMERVILLE     CLOUDY    57  42  57 N10       29.84R
SUSSEX         CLOUDY    53  42  66 N8        29.85F
ANDOVER          N/A     52  42  69 N9G18     29.85S
TRENTON        CLOUDY    55  42  61 N15G24    29.85R
MILLVILLE      CLOUDY    59  46  62 NW10G23   29.88R
ATLANTIC CITY  CLOUDY    57  47  69 NW17G23   29.86R
WRIGHTSTOWN    CLOUDY    55  44  68 NW16G26   29.83S
TOMS RIVER     CLOUDY    54  45  71 N8        29.84S
BELMAR         CLOUDY    54  41  62 NW14      29.83R
$$

PAZ047>061-062-071-241500-
EASTERN PENNSYLVANIA

CITY           SKY/WX    TMP DP  RH WIND       PRES   REMARKS
PHILADELPHIA   PTSUNNY   59  43  55 N22G29    29.89R
ALLENTOWN      SUNNY     57  42  57 NW13G22   29.88S
SCRANTON       PTSUNNY   53  43  68 NW10      29.91S
$$

CTZ002-004>006-009-010-012-RIZ004-006-007-MAZ004-011-015-241500-
SOUTHERN NEW ENGLAND
 IN CT

CITY           SKY/WX    TMP DP  RH WIND       PRES   REMARKS
BRADLEY INTL   CLOUDY    51  44  77 NW9       29.76S
HARTFORD       CLOUDY    51  45  79 MISG      29.77S
DANBURY        CLOUDY    49  43  80 NW9       29.82R
WTRBRY/OXFORD  CLOUDY    46  41  81 NW9G17    29.78S
BRIDGEPORT     CLOUDY    50  47  89 NW16      29.79S
MERIDEN        CLOUDY    50  44  80 NW14      29.78R
NEW HAVEN      CLOUDY    52  47  83 NW9       29.77F
CHESTER        PTSUNNY   48  45  87 NW14G20   29.76S
GROTON         CLOUDY    49  46  90 N12G18    29.74S
WILLIMANTIC    CLOUDY    50  45  83 NW10      29.76R

 IN RI

CITY           SKY/WX    TMP DP  RH WIND       PRES   REMARKS
PROVIDENCE     CLOUDY    52  46  80 NW12      29.72R
BLOCK ISLAND   CLOUDY    52  45  76 NW12G17   29.72S
WESTERLY       LGT RAIN  50  47  89 NW6       29.74R

 IN MA

CITY           SKY/WX    TMP DP  RH WIND       PRES   REMARKS
BOSTON         CLOUDY    49  47  93 NW12      29.71R
WORCESTER      CLOUDY    45  42  89 NW15G22   29.72S
WESTFIELD      CLOUDY    50  43  77 NW9G20    29.77R
PROVINCETOWN   CLOUDY    50  -2  11 N18G25    29.68R
NANTUCKET      LGT RAIN  52  49  89 NW21G32   29.65R
$$

ANZ330-335-338-340-345-350-353-355-241500-
COASTAL MARINE OBSERVATIONS


STATION/POSITION TIME  SKY/WX   TEMP    WIND        PRES    VSBY  WAVE
                                AIR SEA DIR/SP/G                  HT/PER
                 (UTC)          (F)     (DEG/KT/KT) (MB)    (MI)  (FT/S)
NY HARB ENTRANCE NOT AVBL
4S FIRE IS       1400               63                N/A           3/10
20S FIRE ISLAND  1400            54 63  330/ 19/ 27 1008.2          4/ 5
23SW MTP         1400                                 N/A           5/ 9
HUDSON CANYON    1400            56 66  320/ 19/ 21 1007.8          8/ 6
EXECUTION ROCKS  1400            54 62  310/ 12/ 21   N/A
WESTERN LI SOUND 1400            52     310/ 10/ 16   N/A           0
CENTRAL LI SOUND 1300            51 63  340/ 14/ 19   N/A           2/ 4
EASTERN LI SOUND 1300            51 63  330/ 14/ 17   N/A
ROBBINS REEF     1400            53     330/ 16/ 24 1008.5
$$


>>>>>>>>>>>>>>>>>>>>>>>>>>>> KEY <<<<<<<<<<<<<<<<<<<<<<<<<<<
>                                                          <
>     SKY/WX - SKY CONDITION/PRESENT WEATHER               <
>     TMP    - TEMPERATURE IN FAHRENHEIT                   <
>     DP     - DEWPOINT IN FAHRENHEIT                      <
>     RH     - RELATIVE HUMIDITY IN PERCENT                <
>     WIND   - DIRECTION AND SPEED IN MPH                  <
>     PRES   - MEAN SEA LEVEL PRESSURE IN INCHES OF HG     <
>     WCI    - WIND CHILL INDEX                            <
>     VSB    - VISIBILITY IN MILES                         <
>     HX     - HEAT INDEX                                  <
>     TC     - TEMPERATURE IN CELSIUS                      <
>     VRB    - VARIABLE WIND DIRECTION                     <
>                                                          <
>>>>>>>>>>>>>>>>>>>>>>>>>>>> KEY <<<<<<<<<<<<<<<<<<<<<<<<<<<





USA.gov is the U.S. government's official web portal to all federal, state and local government web resources and services.